Погода в деревне Пяльма

Россия / Республика Карелия     62°24′05″N   35°53′24″E
темп.,
°C
ветер,
м/с
пор.,
м/с
влажн.,
%
обл.,
%
осадки,
мм/ч
давл.,
гПа
погр.,
м
24 мая, вт
вт2400:00+2с51373100 0.0 1009970
03:00+1с51278100 0.0 10091002
06:00+2с51277100 0.0 10091028
09:00+4с5966100 0.1 10101097
12:00+5с5863100 0.0 10121152
15:00+5с5768100 0.0 10131054
18:00+5с4571100 0.1 10141011
21:00+3ссв368189 0.1 1016564
25 мая, ср
ср2500:00+1ссв249364 0.0 1016214
03:00+1с2399100 0.0 1017155
06:00+2с1299100 0.2 1017173
09:00+2ссз2393100 0.3 1017489
12:00+5с2374100 0.1 1016906
15:00+7ссв2469100 0.1 10151109
18:00+6св2370100 0.0 1015910
21:00+5всв128018 0.0 101446
26 мая, чт
чт2600:00+1всв119545 0.0 101313
03:00+1св119483 0.0 101310
06:00+4св127774 0.0 1011243
09:00+9вюв12535 0.0 10091024
12:00+12ю124421 0.0 10071534
15:00+14ююз234020 0.0 10051801
18:00+12ююз334745 0.0 1003864
21:00+7ююз117353 0.0 100211
27 мая, пт
пт2700:00+5вюв1182100 0.0 100011
03:00+4ююв2292100 0.0 99830
06:00+6ююв2680100 0.0 996275
09:00+10ю3557100 0.0 995941
12:00+11ююз3455100 0.1 994937
15:00+11ююз3562100 0.3 995944
18:00+10юв4677100 0.1 995964
21:00+9ююв269070 0.1 995455
28 мая, сб
сб2800:00+7вюв259768 0.0 995170
03:00+5ююв239976 0.0 99685
06:00+7ююв119198 0.0 996172
09:00+13ююз0163100 0.0 995697
12:00+16ссв124494 0.1 9941880
15:00+13в3467100 0.9 994848
18:00+14в346224 0.3 9941016
21:00+10в248795 1.1 995108